Notices

What's New in latest Release from April 7th, 2021:

- Updated Glossary, including Speed of Maximum Gust, and Total Hourly Precipitation

- Updated national and regional climate services offices contacts and prices information

- Addition of station inventory lists for 1981-2010, 1971-2000, and 1961-1990 Normals.

If you haven't already, please take our survey and provide feedback about our website: https://eccc.sondage-survey.ca/f/LanguageSelection.aspx?s=442ca660-fcf1-47c0-95a9-59707d6fd709

Hourly Data Report for July 14, 2018

OTTAWA INTL A
ONTARIO
Current Station Operator: NAVCAN

45°19'00.000" N
75°40'00.000" W
114.90 m
6106001
71628
YOW

Download Data

Hourly Data (July 2018)
Hourly Data Report for July 14, 2018
TIME
LST
Temp Definition
°C
Dew Point Definition
°C
Rel Hum Definition
%
Precip. Amount Definition
mm

Wind Dir Definition
10's deg

Wind Spd Definition
km/h
Visibility Definition
km
Stn Press Definition
kPa
Hmdx Definition


Wind Chill Definition


Weather Definition


00:00 22.6 13.7 57   16 6 24.1 100.39 26   LegendNANA
01:00 22.7 14.1 58   20 7 24.1 100.32 26   Cloudy
02:00 19.9 17.4 85   33 7 24.1 100.34     Rain Showers
03:00 19.2 18.1 93   36 4 24.1 100.30     Rain Showers
04:00 18.9 18.0 95   36 2 16.1 100.32     Rain Showers
05:00 18.5 17.8 96   17 3 16.1 100.30     Rain Showers
06:00 18.4 17.8 96   19 4 16.1 100.30     LegendNANA
07:00 19.3 18.4 94   18 7 24.1 100.30     Cloudy
08:00 20.5 18.8 90   17 5 24.1 100.29 27   LegendNANA
09:00 22.8 18.9 79   22 11 16.1 100.26 29   LegendNANA
10:00 24.4 18.3 69   28 10 24.1 100.30 31   Mostly Cloudy
11:00 26.0 19.8 68   30 9 24.1 100.27 33   LegendNANA
12:00 26.0 19.4 66   29 10 24.1 100.26 33   LegendNANA
13:00 26.1 19.2 65   30 4 24.1 100.22 33   Mostly Cloudy
14:00 27.7 19.8 62   29 9 24.1 100.17 35   LegendNANA
15:00 28.8 19.1 55   22 9 24.1 100.15 36   LegendNANA
16:00 29.7 18.1 49   27 11 24.1 100.11 36   Mainly Clear
17:00 29.7 17.4 47   27 8 24.1 100.05 35   LegendNANA
18:00 29.0 18.2 51   18 9 24.1 100.03 35   LegendNANA
19:00 27.4 20.4 65   24 5 24.1 100.05 35   Mainly Clear
20:00 23.3 19.4 78   27 10 24.1 100.05 30   LegendNANA
21:00 22.6 19.0 80   21 10 24.1 100.05 29   LegendNANA
22:00 21.8 19.3 85   20 7 24.1 100.07 29   Mainly Clear
23:00 20.7 18.9 90   24 10 24.1 100.12 27   LegendNANA

Notes on Data Quality.

Legend

  • E = Estimated
  • M = Missing
  • NA = Not Available*
  • [empty] = Indicates an unobserved value
Date modified: